Location: Azul
(36.7830°S, 59.8500°W)
Time: 00:52:57
(UTC-03:00)

ISS - Pass Details

Date: 27 June 2017
Orbit: 401 x 408 km, 51.6° (Epoch: 29 June)

Event Time Altitude Azimuth Distance (km) Brightness Sun altitude
Rises 19:33:42 0° 321° (NW) 2,327 0.9 -19.6°
Reaches altitude 10° 19:35:48 10° 326° (NW) 1,472 -0.3 -20.0°
Enters shadow 19:38:31 48° 5° (N) 548 -3.2 -20.6°
